Miscellaneous Local Product
Issued by NWS Hastings, NE

Home | Current Version | Previous Version | Graphics & Text | Print | Product List | Glossary On
Versions: 1 2 3 4 5 6 7 8 9 10 11 12 13 14 15 16 17 18 19 20 21 22 23 24 25 26 27 28 29 30 31 32 33 34 35 36 37 38 39 40 41 42 43 44 45 46 47 48 49 50
941
AXUS43 KGID 260902
MISGRI

GID CWA HOURLY WEATHER ROUNDUP
NATIONAL WEATHER SERVICE HASTINGS NE
300 AM CST SUN FEB 26 2017

NOTE: "FAIR" INDICATES FEW OR NO CLOUDS BELOW 12,000 FEET WITH NO
SIGNIFICANT WEATHER AND/OR OBSTRUCTIONS TO VISIBILITY.

...SOUTH CENTRAL NEBRASKA...

CITY           SKY/WX    TMP DP  RH WIND       PRES   REMARKS
GRAND ISLAND   CLEAR     29  19  66 SW12      29.87F WCI  19
HASTINGS       MOCLDY    35  20  54 SW10      29.87F WCI  27
KEARNEY        MOCLDY    30  18  59 SW8       29.88S WCI  23
ORD            CLEAR     23  11  60 SW13      29.81F WCI  11
YORK           CLEAR     28  21  74 SW8       29.87F WCI  20
AURORA         CLEAR     29  19  67 SW12      29.87F WCI  19
LEXINGTON      CLEAR     21  15  76 CALM      29.87S
HOLDREGE       CLOUDY    31  14  51 SW8       29.87F WCI  23
HEBRON         CLOUDY    32  23  69 NW3       29.92F

...NEBRASKA PANHANDLE...

CITY           SKY/WX    TMP DP  RH WIND       PRES   REMARKS
CHADRON        CLEAR      7  -1  70 SW6       29.80R WCI  -3
ALLIANCE       CLEAR      7   1  76 W14       29.77S WCI -10
SCOTTSBLUFF    CLEAR      8   2  76 NW6       29.81S WCI  -2
SIDNEY         CLEAR     18   5  57 W15       29.82S WCI   4

...WESTERN AND NORTH CENTRAL NEBRASKA...

CITY           SKY/WX    TMP DP  RH WIND       PRES   REMARKS
VALENTINE      CLEAR      9   2  73 W7        29.77R WCI  -2
AINSWORTH      CLEAR     16   9  74 W12       29.76S WCI   3
ONEILL         CLEAR     19  11  74 SW9       29.78S WCI   7
BROKEN BOW     CLEAR     22  12  65 W9        29.82S WCI  12
IMPERIAL       PTCLDY    23  16  74 W8        29.87R WCI  14
NORTH PLATTE   CLEAR     17  11  77 W7        29.84S WCI   8
MCCOOK         CLOUDY    25  16  68 W8        29.88R WCI  16

...EASTERN NEBRASKA...

CITY           SKY/WX    TMP DP  RH WIND       PRES   REMARKS
NORFOLK        CLEAR     21  13  71 SW9       29.81S WCI  11
SO SIOUX CITY  CLEAR     16  13  88 S3        29.83R
TEKAMAH        CLOUDY    23  18  81 SW6       29.85F WCI  16
COLUMBUS       CLEAR     27  18  69 W8        29.86S WCI  18
ALBION         CLEAR     23  14  69 W5        29.82F WCI  17
OMAHA EPPLEY   MOCLDY    34  22  61 SW13      29.86S WCI  25
OFFUTT AFB     PTCLDY    31  20  63 SW10      29.87F WCI  23
MILLARD        PTCLDY    34  25  70 SW6       29.86F WCI  28
LINCOLN        PTCLDY    35  22  58 SW10      29.89F WCI  27
NEBRASKA CITY  PTCLDY    30  18  61 SW12      29.91S WCI  21
BEATRICE       CLOUDY    30  23  75 SW5       29.93S WCI  25
FALLS CITY     CLEAR     32  19  58 SW10      29.95S WCI  24

...NORTHERN KANSAS...

CITY           SKY/WX    TMP DP  RH WIND       PRES   REMARKS
GOODLAND       CLEAR     11   5  77 W5        29.84S WCI   3
HILL CITY      CLEAR     20  12  71 N8        29.89R WCI  10
PHILLIPSBURG   PTCLDY    25  16  68 S3        29.91S
SMITH CENTER   MOCLDY    27  18  69 CALM      29.91S
HAYS           MOCLDY    28  17  63 E7        29.90F WCI  21
RUSSELL        CLOUDY    30  17  58 NE3       29.91R
CONCORDIA      CLOUDY    35  17  47 SW10      29.93F WCI  27
SALINA         CLOUDY    39  17  41 S7        29.95S WCI  34
TOPEKA         CLOUDY    36  16  44 W5        29.98S WCI  32



USA.gov is the U.S. government's official web portal to all federal, state and local government web resources and services.